TimePDT,TemperatureF,Dew PointF,Humidity,Sea Level PressureIn,VisibilityMPH,Wind Direction,Wind SpeedMPH,Gust SpeedMPH,PrecipitationIn,Events,Conditions,WindDirDegrees,DateUTC
12:53 AM,64.9,50.0,58,29.88,10.0,NNW,9.2,-,N/A,,Clear,330,2013-07-06 07:53:00
1:53 AM,64.0,51.1,63,29.88,10.0,NW,11.5,-,N/A,,Clear,320,2013-07-06 08:53:00
2:53 AM,62.1,52.0,70,29.89,10.0,NW,9.2,-,N/A,,Clear,320,2013-07-06 09:53:00
3:53 AM,61.0,51.1,70,29.89,10.0,NW,11.5,-,N/A,,Clear,320,2013-07-06 10:53:00
4:53 AM,57.9,48.9,72,29.90,10.0,Variable,3.5,17.3,N/A,,Clear,0,2013-07-06 11:53:00
5:53 AM,57.9,50.0,75,29.91,10.0,West,4.6,-,N/A,,Clear,270,2013-07-06 12:53:00
6:53 AM,61.0,51.1,70,29.91,10.0,SSW,3.5,-,N/A,,Clear,210,2013-07-06 13:53:00
7:53 AM,64.0,52.0,65,29.92,10.0,NNW,11.5,-,N/A,,Clear,330,2013-07-06 14:53:00
8:53 AM,66.0,52.0,60,29.91,10.0,NW,15.0,-,N/A,,Clear,320,2013-07-06 15:53:00
9:53 AM,70.0,51.1,51,29.90,10.0,NW,12.7,-,N/A,,Clear,320,2013-07-06 16:53:00
10:53 AM,75.0,50.0,41,29.88,10.0,NNW,10.4,-,N/A,,Clear,330,2013-07-06 17:53:00
11:53 AM,77.0,48.0,36,29.86,10.0,Calm,Calm,-,N/A,,Clear,0,2013-07-06 18:53:00
12:53 PM,79.0,46.9,32,29.83,10.0,WNW,5.8,-,N/A,,Clear,290,2013-07-06 19:53:00
1:53 PM,82.9,46.0,27,29.81,10.0,NNW,8.1,-,N/A,,Clear,330,2013-07-06 20:53:00
2:53 PM,86.0,45.0,24,29.78,10.0,NW,9.2,-,N/A,,Clear,320,2013-07-06 21:53:00
3:53 PM,88.0,46.9,24,29.76,10.0,NNW,10.4,-,N/A,,Clear,340,2013-07-06 22:53:00
4:14 PM,87.8,48.2,25,29.77,10.0,NNW,12.7,-,N/A,,Partly Cloudy,330,2013-07-06 23:14:00
4:53 PM,86.0,48.9,28,29.75,10.0,NNW,16.1,-,N/A,,Clear,330,2013-07-06 23:53:00
5:53 PM,82.9,52.0,34,29.74,10.0,NW,17.3,-,N/A,,Clear,320,2013-07-07 00:53:00
6:53 PM,80.1,54.0,40,29.75,10.0,NNW,15.0,-,N/A,,Clear,330,2013-07-07 01:53:00
7:53 PM,78.1,55.0,45,29.76,10.0,NW,18.4,-,N/A,,Clear,310,2013-07-07 02:53:00
8:53 PM,75.0,55.9,51,29.77,10.0,NW,15.0,-,N/A,,Clear,320,2013-07-07 03:53:00
9:53 PM,73.0,55.9,55,29.78,10.0,NNW,18.4,24.2,N/A,,Clear,330,2013-07-07 04:53:00
10:53 PM,72.0,55.9,57,29.80,10.0,NW,13.8,-,N/A,,Clear,310,2013-07-07 05:53:00
11:53 PM,71.1,55.0,57,29.81,10.0,NW,15.0,21.9,N/A,,Clear,320,2013-07-07 06:53:00